Regional Weather Roundup
Issued by NWS Newport/Morehead, NC

Current Version | Previous Version | Graphics & Text | Print | Product List | Glossary Off
Versions: 1 2 3 4 5 6 7 8 9 10 11 12 13 14 15 16 17 18 19 20 21 22 23 24 25 26 27 28 29 30 31 32 33 34 35 36 37 38 39 40 41 42 43 44 45 46 47 48 49 50

000
ASUS42 KMHX 222125
RWRMHX
WEATHER ROUNDUP FOR EASTERN NORTH CAROLINA
NATIONAL WEATHER SERVICE NEWPORT/MOREHEAD CITY NC
400 PM EST WED FEB 22 2017

NOTE: "FAIR" INDICATES FEW OR NO CLOUDS BELOW 12,000 FEET
WITH NO SIGNIFICANT WEATHER AND/OR OBSTRUCTIONS TO VISIBILITY

NCZ015>017-031-032-045>047-102-103-222200-
NORTH COAST

CITY           SKY/WX    TMP DP  RH WIND       PRES   REMARKS
EDENTON        CLOUDY    67  51  56 E7        29.96S
ELIZABETH CITY CLOUDY    64  49  57 SE10      29.96F
KITTY HAWK     NOT AVBL
MANTEO         PTSUNNY   65  51  60 S7        29.97S

$$

NCZ045>047-081-094-103-104-222200-
CENTRAL COAST

CITY           SKY/WX    TMP DP  RH WIND       PRES   REMARKS
FRISCO         MOSUNNY   70  54  56 S7        29.96F

$$

NCZ095-097-098-100-101-222200-
SOUTHERN COAST

CITY           SKY/WX    TMP DP  RH WIND       PRES   REMARKS
BEAUFORT       CLOUDY    68  53  58 SW7       29.95F
CEDAR ISLAND   NOT AVBL
JACKSONVILLE   MOSUNNY   69  55  60 SE9       29.94F
PINEY ISLAND   PTCLDY   N/A N/A N/A SE10      29.95S
WILMINGTON     MOSUNNY   69  54  58 SE12      29.93S


$$

NCZ011>013-027>030-043-044-078>080-089-090>093-098-222200-
COASTAL PLAIN

CITY           SKY/WX    TMP DP  RH WIND       PRES   REMARKS
AHOSKIE        NOT AVBL
CLINTON        CLOUDY    72  54  53 S3        29.92S
ELIZABETHTOWN  PTSUNNY   74  51  44 SE5       29.91S
GOLDSBORO      PTSUNNY   72  51  48 SE8       29.91S
GREENVILLE     CLOUDY    72  50  46 SE7       29.95S
HAVELOCK       NOT AVBL
KENANSVILLE    NOT AVBL
KINSTON        CLOUDY    72  50  46 S7        29.94S
NEW BERN       CLOUDY    70  52  52 S10       29.95S
RICHLANDS      MOSUNNY   68  55  63 S12       29.94F
ROCKY MOUNT    CLOUDY    70  50  49 CALM      29.93F
WASHINGTON     PTSUNNY   69  52  53 SE6       29.94S
WHITEVILLE     MOSUNNY   72  51  47 SE9       29.91S

$$

AMZ130-135-150-152-154-156-158-170-250-252-270-ANZ085-086-088-633-658-670-222200-
MARINE OBSERVATIONS

STATION/POSITION TIME  TEMP    WIND        PRES    WAVE   SWELL
                       AIR SEA DIR/SP/G            HT/PER HT/PER
                 (UTC) (F)     (DEG/KT/KT) (MB)    (FT/S) (FT/S)
CHESAPEAKE LIGHT NOT AVBL
64 E VA BEACH    2050   58 56  160/  4/  6 1015.1    4/ 9   3/ 9
DUCK             2100   54 48  140/  8/  9 1014.1
2 E DUCK         2100      51                N/A     3/10   2/11
OREGON INLET     2100   58 52  100/  5/  8 1014.8
13E OREGON INLT  NOT AVBL
HATTERAS CG      2100   67 59  160/  5/  8 1014.3
DIAMOND BUOY     2050   68 75  140/ 12/ 14 1014.6    3/10   3/10
CAPE LOOKOUT     2100   66     150/  6/  6 1013.9
BEAUFORT LAB     2100   66 54  210/  4/  6 1013.3
30 SE NEW RVR IN 2108   68     150/ 10/ 14 1013.9
30 SE NEW RVR IN 2113      69                N/A     4/ 9   2/11
27 SE WRIGHTSVLE 2108   67 65  140/ 10/ 14 1013.0
5 SE WRIGHTSVLE  2108   62 58  110/  4/  8 1013.4
225 S CAPE HAT   2050   65 70  100/ 14/ 17 1014.6    5/ 9   5/ 9
41 SE CHARLESTON 2050   69 70  120/ 19/ 23 1010.9    6/ 6   2/ 8

$$




USA.gov is the U.S. government's official web portal to all federal, state and local government web resources and services.